Weather History for Lincolnton, NC

Change the Weather History Date:

Sunday, February 2, 2014

  Actual Average (KCLT) Record (KCLT)
Temperature  
Mean Temperature 50 °F 42 °F  
Max Temperature 70 °F 52 °F 80 °F (1989)
Min Temperature 29 °F 31 °F 10 °F (1917)
Degree Days  
Heating Degree Days 16 23  
Month to date heating degree days 47  
Since 1 July heating degree days 2154  
Cooling Degree Days 0 0  
Month to date cooling degree days 0  
Year to date cooling degree days 0  
Moisture  
Dew Point 41 °F    
Average Humidity 73    
Maximum Humidity 99    
Minimum Humidity 43    
Precipitation  
Precipitation 0.00 in 0.11 in 2.30 in (1973)
Month to date precipitation 0.22  
Year to date precipitation 3.63  
Snow  
Snow 0.00 in 0.00 in 1.00 in (1921)
Month to date snowfall 0.1  
Since 1 July snowfall 2.6  
Snow Depth -    
Sea Level Pressure  
Sea Level Pressure 30.05 in    
Wind  
Wind Speed 3 mph (WSW)    
Max Wind Speed 12 mph    
Max Gust Speed 17 mph    
Visibility 9 miles    
Events      
T = Trace of Precipitation, MM = Missing Value Source: NWS Daily Summary

Daily Weather History Graph

Daily Weather History Graph

Search for Another Location

Airport:

Trip Planner

Search our weather history database for the weather conditions in past years. The results will help you decide how hot, cold, wet, or windy it might be!

Date:

Astronomy

Feb. 02, 2014 Rise Set
Actual Time 7:23 AM EST 5:53 PM EST
Civil Twilight 6:56 AM EST 6:20 PM EST
Nautical Twilight 6:26 AM EST 6:50 PM EST
Astronomical Twilight 5:56 AM EST 7:20 PM EST
Moon 8:57 AM EST (2/2) 9:26 PM EST (2/2)
Length of Visible Light 11h 23m
Length of Day
10h 30m
Waxing Crescent, 11% of the Moon is Illuminated
Feb 2
Waxing Crescent
Feb 6
First Quarter
Feb 14
Full
Feb 22
Last Quarter
Mar 1
New

Hourly Weather History & Observations

Time (EST) Temp. Windchill Dew Point Humidity Pressure Visibility Wind Dir Wind Speed Gust Speed Precip Events Conditions
12:15 AM 46.4 °F - 36.1 °F 67% 30.10 in 10.0 mi Calm Calm - N/A   Scattered Clouds
12:35 AM 42.8 °F - 34.0 °F 71% 30.09 in 10.0 mi Calm Calm - N/A   Clear
12:55 AM 44.2 °F 42.7 °F 36.1 °F 73% 30.09 in 10.0 mi WSW 3.5 mph - N/A   Clear
1:15 AM 39.9 °F - 32.7 °F 75% 30.09 in 10.0 mi Calm Calm - N/A   Scattered Clouds
1:35 AM 39.7 °F - 33.3 °F 78% 30.08 in 10.0 mi Calm Calm - N/A   Mostly Cloudy
1:55 AM 39.7 °F - 34.2 °F 80% 30.08 in 10.0 mi Calm Calm - N/A   Scattered Clouds
2:15 AM 36.1 °F - 32.9 °F 88% 30.08 in 10.0 mi Calm Calm - N/A   Clear
2:35 AM 35.2 °F - 32.2 °F 89% 30.08 in 10.0 mi Calm Calm - N/A   Clear
2:55 AM 36.0 °F - 32.5 °F 87% 30.07 in 10.0 mi Calm Calm - N/A   Clear
3:15 AM 33.3 °F - 31.8 °F 94% 30.07 in 10.0 mi Calm Calm - N/A   Clear
3:35 AM 32.9 °F - 31.1 °F 93% 30.07 in 10.0 mi Calm Calm - N/A   Clear
3:55 AM 32.4 °F - 31.5 °F 96% 30.07 in 10.0 mi Calm Calm - N/A   Clear
4:15 AM 31.1 °F - 29.5 °F 94% 30.07 in 10.0 mi Calm Calm - N/A   Clear
4:35 AM 32.4 °F - 31.6 °F 97% 30.07 in 10.0 mi Calm Calm - N/A   Clear
4:55 AM 30.2 °F - 29.3 °F 96% 30.06 in 10.0 mi Calm Calm - N/A   Clear
5:15 AM 30.4 °F - 29.3 °F 96% 30.07 in 10.0 mi Calm Calm - N/A   Clear
5:35 AM 30.2 °F - 29.5 °F 97% 30.07 in 10.0 mi Calm Calm - N/A   Clear
5:55 AM 29.5 °F - 29.1 °F 99% 30.06 in 10.0 mi Calm Calm - N/A   Clear
6:15 AM 30.2 °F - 29.5 °F 97% 30.06 in 10.0 mi Calm Calm - N/A   Scattered Clouds
6:35 AM 31.3 °F - 30.7 °F 98% 30.05 in 1.0 mi Calm Calm - N/A   Overcast
6:55 AM 30.0 °F - 29.5 °F 98% 30.06 in 10.0 mi Calm Calm - N/A   Mostly Cloudy
7:15 AM 35.2 °F - 34.9 °F 99% 30.06 in 5.0 mi Calm Calm - N/A   Overcast
7:35 AM 37.6 °F 35.1 °F 37.4 °F 99% 30.08 in 4.0 mi WSW 3.5 mph - N/A   Overcast
7:55 AM 40.3 °F 38.2 °F 40.1 °F 99% 30.09 in 2.5 mi West 3.5 mph - N/A   Overcast
8:15 AM 41.0 °F 38.0 °F 40.3 °F 97% 30.09 in 3.0 mi WSW 4.6 mph - N/A   Overcast
8:35 AM 41.5 °F 37.1 °F 40.8 °F 97% 30.10 in 4.0 mi WSW 6.9 mph - N/A   Overcast
8:55 AM 43.2 °F 39.7 °F 41.2 °F 93% 30.10 in 5.0 mi WSW 5.8 mph - N/A   Mostly Cloudy
9:15 AM 44.6 °F 40.2 °F 41.4 °F 88% 30.11 in 7.0 mi WSW 8.1 mph - N/A   Mostly Cloudy
9:35 AM 47.1 °F - 41.4 °F 80% 30.12 in 10.0 mi WSW 10.4 mph - N/A   Scattered Clouds
9:55 AM 48.6 °F - 40.5 °F 74% 30.12 in 10.0 mi WSW 11.5 mph - N/A   Clear
10:15 AM 50.2 °F - 40.3 °F 69% 30.11 in 10.0 mi WSW 10.4 mph - N/A   Clear
10:35 AM 52.0 °F - 41.0 °F 66% 30.12 in 10.0 mi WSW 9.2 mph - N/A   Clear
10:55 AM 53.2 °F - 41.2 °F 64% 30.11 in 10.0 mi WSW 11.5 mph - N/A   Clear
11:15 AM 55.2 °F - 42.1 °F 61% 30.11 in 10.0 mi WSW 8.1 mph - N/A   Clear
11:35 AM 57.0 °F - 42.8 °F 59% 30.10 in 10.0 mi SW 10.4 mph 17.3 mph N/A   Clear
11:55 AM 59.0 °F - 43.2 °F 56% 30.09 in 10.0 mi SW 8.1 mph - N/A   Clear
12:15 PM 59.7 °F - 43.9 °F 56% 30.08 in 10.0 mi WSW 11.5 mph 16.1 mph N/A   Clear
12:35 PM 61.2 °F - 44.6 °F 54% 30.08 in 10.0 mi WSW 6.9 mph - N/A   Clear
12:55 PM 60.8 °F - 44.6 °F 55% 30.07 in 10.0 mi WSW 11.5 mph - N/A   Clear
1:15 PM 61.9 °F - 45.3 °F 55% 30.05 in 10.0 mi SW 6.9 mph - N/A   Clear
1:35 PM 63.5 °F - 45.5 °F 52% 30.05 in 10.0 mi WSW 4.6 mph - N/A   Clear
1:55 PM 64.6 °F - 45.5 °F 50% 30.04 in 10.0 mi SW 8.1 mph - N/A   Clear
2:15 PM 65.3 °F - 45.7 °F 49% 30.02 in 10.0 mi SW 5.8 mph - N/A   Clear
2:35 PM 66.4 °F - 46.2 °F 48% 30.02 in 10.0 mi SW 6.9 mph - N/A   Clear
2:55 PM 67.3 °F - 46.6 °F 47% 30.01 in 10.0 mi WSW 5.8 mph - N/A   Clear
3:15 PM 68.4 °F - 46.8 °F 46% 30.01 in 10.0 mi SW 9.2 mph 16.1 mph N/A   Clear
3:35 PM 69.8 °F - 46.8 °F 44% 30.01 in 10.0 mi WSW 6.9 mph - N/A   Clear
3:55 PM 70.0 °F - 46.8 °F 43% 30.00 in 10.0 mi SW 5.8 mph - N/A   Clear
4:15 PM 70.3 °F - 46.8 °F 43% 30.00 in 10.0 mi SW 5.8 mph - N/A   Clear
4:35 PM 69.8 °F - 46.9 °F 44% 30.00 in 10.0 mi SW 6.9 mph - N/A   Clear
4:55 PM 68.5 °F - 46.9 °F 46% 30.01 in 10.0 mi SSW 5.8 mph - N/A   Clear
5:15 PM 67.5 °F - 47.3 °F 48% 30.01 in 10.0 mi WSW 5.8 mph - N/A   Clear
5:35 PM 66.0 °F - 47.7 °F 52% 30.02 in 10.0 mi SW 5.8 mph - N/A   Scattered Clouds
5:55 PM 64.6 °F - 47.8 °F 55% 30.02 in 10.0 mi SW 3.5 mph - N/A   Scattered Clouds
6:15 PM 63.1 °F - 47.8 °F 57% 30.02 in 10.0 mi Calm Calm - N/A   Clear
6:35 PM 61.9 °F - 48.0 °F 60% 30.02 in 10.0 mi SW 3.5 mph - N/A   Clear
6:55 PM 60.8 °F - 47.8 °F 62% 30.02 in 10.0 mi SW 3.5 mph - N/A   Clear
7:15 PM 59.9 °F - 47.8 °F 64% 30.01 in 10.0 mi Calm Calm - N/A   Clear
7:35 PM 59.2 °F - 47.7 °F 66% 30.02 in 10.0 mi SW 4.6 mph - N/A   Clear
7:55 PM 58.3 °F - 47.5 °F 67% 30.02 in 10.0 mi Calm Calm - N/A   Clear
8:15 PM 57.9 °F - 47.3 °F 68% 30.02 in 10.0 mi SW 3.5 mph - N/A   Clear
8:35 PM 57.2 °F - 47.3 °F 69% 30.03 in 10.0 mi WSW 3.5 mph - N/A   Clear
8:55 PM 56.7 °F - 47.3 °F 71% 30.02 in 10.0 mi SW 4.6 mph - N/A   Clear
9:15 PM 56.7 °F - 47.3 °F 71% 30.02 in 10.0 mi SW 4.6 mph - N/A   Clear
9:35 PM 55.8 °F - 47.3 °F 73% 30.03 in 10.0 mi WSW 4.6 mph - N/A   Clear
9:55 PM 55.4 °F - 47.3 °F 74% 30.02 in 10.0 mi SW 4.6 mph - N/A   Clear
10:15 PM 55.0 °F - 47.5 °F 76% 30.02 in 10.0 mi SW 4.6 mph - N/A   Clear
10:35 PM 54.5 °F - 47.3 °F 77% 30.01 in 10.0 mi SW 3.5 mph - N/A   Scattered Clouds
10:55 PM 54.1 °F - 47.1 °F 77% 29.99 in 10.0 mi Calm Calm - N/A   Mostly Cloudy
11:15 PM 54.5 °F - 47.7 °F 78% 30.00 in 10.0 mi Calm Calm - N/A   Mostly Cloudy
11:35 PM 54.7 °F - 47.8 °F 78% 30.00 in 10.0 mi Calm Calm - N/A   Overcast
11:55 PM 52.7 °F - 46.9 °F 81% 29.98 in 10.0 mi Calm Calm - N/A   Overcast